Location: ??? ????
(38.0580°N, 23.1536°E)
Time: 22:49:14
(UTC+00:00)

Cosmos 1825 Rocket - Pass Details

Date: 13 December 2025
Orbit: 596 x 624 km, 82.5° (Epoch: 14 January)

Event Time Altitude Azimuth Distance (km) Brightness Sun altitude
Rises 16:14:59 0° 349° (NNW) 2,868 6.9 -12.8°
Reaches altitude 10° 16:17:14 10° 346° (NNW) 1,956 6.1 -13.2°
Maximum altitude 16:21:30 61° 266° (W) 681 4.0 -14.0°
Drops below altitude 10° 16:25:42 10° 186° (S) 1,929 6.4 -14.8°
Sets 16:27:54 0° 183° (S) 2,824 7.2 -15.2°
